Time,TemperatureF,DewpointF,PressureIn,WindDirection,WindDirectionDegrees,WindSpeedMPH,WindSpeedGustMPH,Humidity,HourlyPrecipIn,Conditions,Clouds,dailyrainin,SolarRadiationWatts/m^2,SoftwareType,DateUTC
2013-03-22 00:02:00,5.0,2.0,-100.00,NW,313,0.0,2.0,86,0.00,,,0.00,0.000000,,2013-03-22 05:02:00,
2013-03-22 00:10:00,2.0,-1.0,-100.00,NNW,333,1.0,2.0,87,0.00,,,0.00,0.000000,,2013-03-22 05:10:00,
2013-03-22 00:32:00,2.0,-1.0,-100.00,NNW,333,1.0,2.0,87,0.00,,,0.00,0.000000,,2013-03-22 05:32:00,
2013-03-22 00:42:00,2.0,-1.0,-100.00,NNW,333,1.0,2.0,87,0.00,,,0.00,0.000000,,2013-03-22 05:42:00,
2013-03-22 00:52:00,2.0,-1.0,-100.00,NNW,333,1.0,2.0,87,0.00,,,0.00,0.000000,,2013-03-22 05:52:00,
2013-03-22 01:02:00,2.0,-1.0,-100.00,NNW,333,1.0,2.0,87,0.00,,,0.00,0.000000,,2013-03-22 06:02:00,
2013-03-22 01:10:00,1.0,-2.0,-100.00,SW,223,0.0,2.0,85,0.00,,,0.00,0.000000,,2013-03-22 06:10:00,
2013-03-22 01:32:00,1.0,-2.0,-100.00,SW,223,0.0,2.0,85,0.00,,,0.00,0.000000,,2013-03-22 06:32:00,
2013-03-22 01:43:00,1.0,-2.0,-100.00,SW,223,0.0,2.0,85,0.00,,,0.00,0.000000,,2013-03-22 06:43:00,
2013-03-22 01:52:00,1.0,-2.0,-100.00,SW,223,0.0,2.0,85,0.00,,,0.00,0.000000,,2013-03-22 06:52:00,
2013-03-22 02:02:00,1.0,-2.0,-100.00,SW,223,0.0,2.0,85,0.00,,,0.00,0.000000,,2013-03-22 07:02:00,
2013-03-22 02:10:00,-1.0,-5.0,-100.00,North,1,0.0,2.0,81,0.00,,,0.00,0.000000,,2013-03-22 07:10:00,
2013-03-22 02:42:00,-1.0,-5.0,-100.00,North,1,0.0,2.0,81,0.00,,,0.00,0.000000,,2013-03-22 07:42:00,
2013-03-22 02:52:00,-1.0,-5.0,-100.00,North,1,0.0,2.0,81,0.00,,,0.00,0.000000,,2013-03-22 07:52:00,
2013-03-22 03:03:00,-1.0,-5.0,-100.00,North,1,0.0,2.0,81,0.00,,,0.00,0.000000,,2013-03-22 08:03:00,
2013-03-22 03:10:00,-2.0,-6.0,-100.00,SSW,194,1.0,2.0,82,0.00,,,0.00,0.000000,,2013-03-22 08:10:00,
2013-03-22 03:32:00,-2.0,-6.0,-100.00,SSW,194,1.0,2.0,82,0.00,,,0.00,0.000000,,2013-03-22 08:32:00,
2013-03-22 03:42:00,-2.0,-6.0,-100.00,SSW,194,1.0,2.0,82,0.00,,,0.00,0.000000,,2013-03-22 08:42:00,
2013-03-22 03:52:00,-2.0,-6.0,-100.00,SSW,194,1.0,2.0,82,0.00,,,0.00,0.000000,,2013-03-22 08:52:00,
2013-03-22 04:02:00,-2.0,-6.0,-100.00,SSW,194,1.0,2.0,82,0.00,,,0.00,0.000000,,2013-03-22 09:02:00,
2013-03-22 04:10:00,-4.0,-9.0,-100.00,NNE,24,0.0,1.0,80,0.00,,,0.00,0.000000,,2013-03-22 09:10:00,
2013-03-22 04:42:00,-4.0,-9.0,-100.00,NNE,24,0.0,1.0,80,0.00,,,0.00,0.000000,,2013-03-22 09:42:00,
2013-03-22 04:53:00,-4.0,-9.0,-100.00,NNE,24,0.0,1.0,80,0.00,,,0.00,0.000000,,2013-03-22 09:53:00,
2013-03-22 05:03:00,-4.0,-9.0,-100.00,NNE,24,0.0,1.0,80,0.00,,,0.00,0.000000,,2013-03-22 10:03:00,
2013-03-22 05:10:00,-6.0,-11.0,-100.00,North,359,0.0,2.0,77,0.00,,,0.00,0.000000,,2013-03-22 10:10:00,
2013-03-22 05:33:00,-6.0,-11.0,-100.00,North,359,0.0,2.0,77,0.00,,,0.00,0.000000,,2013-03-22 10:33:00,
2013-03-22 05:42:00,-6.0,-11.0,-100.00,North,359,0.0,2.0,77,0.00,,,0.00,0.000000,,2013-03-22 10:42:00,
2013-03-22 05:52:00,-6.0,-11.0,-100.00,North,359,0.0,2.0,77,0.00,,,0.00,0.000000,,2013-03-22 10:52:00,
2013-03-22 06:03:00,-6.0,-11.0,-100.00,North,359,0.0,2.0,77,0.00,,,0.00,0.000000,,2013-03-22 11:03:00,
2013-03-22 06:10:00,-2.0,-7.0,-100.00,NNE,32,1.0,1.0,80,0.00,,,0.00,0.000000,,2013-03-22 11:10:00,
2013-03-22 06:33:00,-2.0,-7.0,-100.00,NNE,32,1.0,1.0,80,0.00,,,0.00,0.000000,,2013-03-22 11:33:00,
2013-03-22 06:42:00,-2.0,-7.0,-100.00,NNE,32,1.0,1.0,80,0.00,,,0.00,0.000000,,2013-03-22 11:42:00,
2013-03-22 06:52:00,-2.0,-7.0,-100.00,NNE,32,1.0,1.0,80,0.00,,,0.00,0.000000,,2013-03-22 11:52:00,
2013-03-22 07:02:00,-2.0,-7.0,-100.00,NNE,32,1.0,1.0,80,0.00,,,0.00,0.000000,,2013-03-22 12:02:00,
2013-03-22 07:10:00,0.0,-5.0,-100.00,North,357,0.0,1.0,79,0.00,,,0.00,2.000000,,2013-03-22 12:10:00,
2013-03-22 07:42:00,0.0,-5.0,-100.00,North,357,0.0,1.0,79,0.00,,,0.00,2.000000,,2013-03-22 12:42:00,
2013-03-22 07:52:00,0.0,-5.0,-100.00,North,357,0.0,1.0,79,0.00,,,0.00,2.000000,,2013-03-22 12:52:00,
2013-03-22 08:02:00,0.0,-5.0,-100.00,North,357,0.0,1.0,79,0.00,,,0.00,2.000000,,2013-03-22 13:02:00,
2013-03-22 08:10:00,4.0,-1.0,-100.00,ENE,76,1.0,2.0,80,0.00,,,0.00,37.000000,,2013-03-22 13:10:00,
2013-03-22 08:42:00,4.0,-1.0,-100.00,ENE,76,1.0,2.0,80,0.00,,,0.00,37.000000,,2013-03-22 13:42:00,
2013-03-22 08:52:00,4.0,-1.0,-100.00,ENE,76,1.0,2.0,80,0.00,,,0.00,37.000000,,2013-03-22 13:52:00,
2013-03-22 09:02:00,4.0,-1.0,-100.00,ENE,76,1.0,2.0,80,0.00,,,0.00,37.000000,,2013-03-22 14:02:00,
2013-03-22 09:10:00,14.0,9.0,-100.00,NNW,345,2.0,4.0,81,0.00,,,0.00,99.000000,,2013-03-22 14:10:00,
2013-03-22 09:43:00,14.0,9.0,-100.00,NNW,345,2.0,4.0,81,0.00,,,0.00,99.000000,,2013-03-22 14:43:00,
2013-03-22 09:52:00,14.0,9.0,-100.00,NNW,345,2.0,4.0,81,0.00,,,0.00,99.000000,,2013-03-22 14:52:00,
2013-03-22 10:03:00,14.0,9.0,-100.00,NNW,345,2.0,4.0,81,0.00,,,0.00,99.000000,,2013-03-22 15:03:00,
2013-03-22 10:10:00,24.0,18.0,-100.00,North,2,2.0,4.0,76,0.00,,,0.00,165.000000,,2013-03-22 15:10:00,
2013-03-22 10:43:00,24.0,18.0,-100.00,North,2,2.0,4.0,76,0.00,,,0.00,165.000000,,2013-03-22 15:43:00,
2013-03-22 10:53:00,24.0,18.0,-100.00,North,2,2.0,4.0,76,0.00,,,0.00,165.000000,,2013-03-22 15:53:00,
2013-03-22 11:03:00,24.0,18.0,-100.00,North,2,2.0,4.0,76,0.00,,,0.00,165.000000,,2013-03-22 16:03:00,
2013-03-22 11:10:00,27.0,19.0,-100.00,NNE,15,4.0,11.0,71,0.00,,,0.00,270.000000,,2013-03-22 16:10:00,
2013-03-22 11:42:00,27.0,19.0,-100.00,NNE,15,4.0,11.0,71,0.00,,,0.00,270.000000,,2013-03-22 16:42:00,
2013-03-22 11:52:00,27.0,19.0,-100.00,NNE,15,4.0,11.0,71,0.00,,,0.00,270.000000,,2013-03-22 16:52:00,
2013-03-22 12:03:00,27.0,19.0,-100.00,NNE,15,4.0,11.0,71,0.00,,,0.00,270.000000,,2013-03-22 17:03:00,
2013-03-22 12:10:00,27.0,16.0,-100.00,North,354,6.0,12.0,62,0.00,,,0.00,337.000000,,2013-03-22 17:10:00,
2013-03-22 12:42:00,27.0,16.0,-100.00,North,354,6.0,12.0,62,0.00,,,0.00,337.000000,,2013-03-22 17:42:00,
2013-03-22 12:53:00,27.0,16.0,-100.00,North,354,6.0,12.0,62,0.00,,,0.00,337.000000,,2013-03-22 17:53:00,
2013-03-22 13:02:00,27.0,16.0,-100.00,North,354,6.0,12.0,62,0.00,,,0.00,337.000000,,2013-03-22 18:02:00,
2013-03-22 13:10:00,29.0,18.0,-100.00,North,359,6.0,15.0,62,0.00,,,0.00,323.000000,,2013-03-22 18:10:00,
2013-03-22 13:42:00,29.0,18.0,-100.00,North,359,6.0,15.0,62,0.00,,,0.00,323.000000,,2013-03-22 18:42:00,
2013-03-22 13:52:00,29.0,18.0,-100.00,North,359,6.0,15.0,62,0.00,,,0.00,323.000000,,2013-03-22 18:52:00,
2013-03-22 14:02:00,29.0,18.0,-100.00,North,359,6.0,15.0,62,0.00,,,0.00,323.000000,,2013-03-22 19:02:00,
2013-03-22 14:10:00,30.0,18.0,-100.00,NNW,339,6.0,11.0,61,0.00,,,0.00,290.000000,,2013-03-22 19:10:00,
2013-03-22 14:43:00,30.0,18.0,-100.00,NNW,339,6.0,11.0,61,0.00,,,0.00,290.000000,,2013-03-22 19:43:00,
2013-03-22 14:52:00,30.0,18.0,-100.00,NNW,339,6.0,11.0,61,0.00,,,0.00,290.000000,,2013-03-22 19:52:00,
2013-03-22 15:02:00,30.0,18.0,-100.00,NNW,339,6.0,11.0,61,0.00,,,0.00,290.000000,,2013-03-22 20:02:00,
2013-03-22 15:10:00,34.0,20.0,-100.00,East,88,4.0,11.0,57,0.00,,,0.00,315.000000,,2013-03-22 20:10:00,
2013-03-22 15:43:00,34.0,20.0,-100.00,East,88,4.0,11.0,57,0.00,,,0.00,315.000000,,2013-03-22 20:43:00,
2013-03-22 15:52:00,34.0,20.0,-100.00,East,88,4.0,11.0,57,0.00,,,0.00,315.000000,,2013-03-22 20:52:00,
2013-03-22 16:03:00,34.0,20.0,-100.00,East,88,4.0,11.0,57,0.00,,,0.00,315.000000,,2013-03-22 21:03:00,
2013-03-22 16:10:00,33.0,18.0,-100.00,NNW,341,4.0,10.0,53,0.00,,,0.00,270.000000,,2013-03-22 21:10:00,
2013-03-22 16:33:00,33.0,18.0,-100.00,NNW,341,4.0,10.0,53,0.00,,,0.00,270.000000,,2013-03-22 21:33:00,
2013-03-22 16:43:00,33.0,18.0,-100.00,NNW,341,4.0,10.0,53,0.00,,,0.00,270.000000,,2013-03-22 21:43:00,
2013-03-22 16:53:00,33.0,18.0,-100.00,NNW,341,4.0,10.0,53,0.00,,,0.00,270.000000,,2013-03-22 21:53:00,
2013-03-22 17:03:00,33.0,18.0,-100.00,NNW,341,4.0,10.0,53,0.00,,,0.00,270.000000,,2013-03-22 22:03:00,
2013-03-22 17:10:00,31.0,17.0,-100.00,NNW,344,6.0,11.0,56,0.00,,,0.00,163.000000,,2013-03-22 22:10:00,
2013-03-22 17:43:00,31.0,17.0,-100.00,NNW,344,6.0,11.0,56,0.00,,,0.00,163.000000,,2013-03-22 22:43:00,
2013-03-22 17:53:00,31.0,17.0,-100.00,NNW,344,6.0,11.0,56,0.00,,,0.00,163.000000,,2013-03-22 22:53:00,
2013-03-22 18:02:00,31.0,17.0,-100.00,NNW,344,6.0,11.0,56,0.00,,,0.00,163.000000,,2013-03-22 23:02:00,
2013-03-22 18:10:00,30.0,19.0,-100.00,NNW,347,3.0,11.0,62,0.00,,,0.00,80.000000,,2013-03-22 23:10:00,
2013-03-22 18:33:00,30.0,19.0,-100.00,NNW,347,3.0,11.0,62,0.00,,,0.00,80.000000,,2013-03-22 23:33:00,
2013-03-22 18:42:00,30.0,19.0,-100.00,NNW,347,3.0,11.0,62,0.00,,,0.00,80.000000,,2013-03-22 23:42:00,
2013-03-22 18:52:00,30.0,19.0,-100.00,NNW,347,3.0,11.0,62,0.00,,,0.00,80.000000,,2013-03-22 23:52:00,
2013-03-22 19:02:00,30.0,19.0,-100.00,NNW,347,3.0,11.0,62,0.00,,,0.00,80.000000,,2013-03-23 00:02:00,
2013-03-22 20:10:00,28.0,17.0,-100.00,NNW,333,4.0,10.0,64,-99.99,,,0.00,0.000000,,2013-03-23 01:10:00,
2013-03-22 20:43:00,28.0,17.0,-100.00,NNW,333,4.0,10.0,64,-99.99,,,0.00,0.000000,,2013-03-23 01:43:00,
2013-03-22 20:52:00,28.0,17.0,-100.00,NNW,333,4.0,10.0,64,-99.99,,,0.00,0.000000,,2013-03-23 01:52:00,
2013-03-22 21:02:00,28.0,17.0,-100.00,NNW,333,4.0,10.0,64,-99.99,,,0.00,0.000000,,2013-03-23 02:02:00,
2013-03-22 21:10:00,28.0,18.0,-100.00,North,7,4.0,7.0,66,0.00,,,0.00,0.000000,,2013-03-23 02:10:00,
2013-03-22 21:42:00,28.0,18.0,-100.00,North,7,4.0,7.0,66,0.00,,,0.00,0.000000,,2013-03-23 02:42:00,
2013-03-22 21:52:00,28.0,18.0,-100.00,North,7,4.0,7.0,66,0.00,,,0.00,0.000000,,2013-03-23 02:52:00,
2013-03-22 22:02:00,28.0,18.0,-100.00,North,7,4.0,7.0,66,0.00,,,0.00,0.000000,,2013-03-23 03:02:00,
2013-03-22 22:10:00,26.0,18.0,-100.00,North,2,5.0,10.0,70,0.00,,,0.00,0.000000,,2013-03-23 03:10:00,
2013-03-22 22:43:00,26.0,18.0,-100.00,North,2,5.0,10.0,70,0.00,,,0.00,0.000000,,2013-03-23 03:43:00,
2013-03-22 22:53:00,26.0,18.0,-100.00,North,2,5.0,10.0,70,0.00,,,0.00,0.000000,,2013-03-23 03:53:00,
2013-03-22 23:02:00,26.0,18.0,-100.00,North,2,5.0,10.0,70,0.00,,,0.00,0.000000,,2013-03-23 04:02:00,
2013-03-22 23:10:00,25.0,17.0,-100.00,NNE,16,3.0,10.0,72,0.00,,,0.00,0.000000,,2013-03-23 04:10:00,
2013-03-22 23:33:00,25.0,17.0,-100.00,NNE,16,3.0,10.0,72,0.00,,,0.00,0.000000,,2013-03-23 04:33:00,
2013-03-22 23:43:00,25.0,17.0,-100.00,NNE,16,3.0,10.0,72,0.00,,,0.00,0.000000,,2013-03-23 04:43:00,
2013-03-22 23:53:00,25.0,17.0,-100.00,NNE,16,3.0,10.0,72,0.00,,,0.00,0.000000,,2013-03-23 04:53:00,